• In India
  • List of Countries
  • For 7 days
  • Water Temperature
  • Satellite Maps
  • Weather Map
  • Weather Widgets
  • user-avatar
    Login

    Hourly Weather Igls

    Today, 16 July, Monday

    Time Temperature Precipitation Wind Pressure Humidity
    00:00 +14°C° 0 mm 1 mps 685 mmHg 88%
    01:00 +14°C° 0 mm 2 mps 684 mmHg 87%
    02:00 +13°C° 0 mm 1 mps 684 mmHg 87%
    03:00 +13°C° 0 mm 1 mps 684 mmHg 86%
    04:00 +13°C° 0 mm 1 mps 684 mmHg 86%
    05:00 +15°C° 0 mm 1 mps 684 mmHg 81%
    06:00 +16°C° 0 mm 1 mps 684 mmHg 76%
    07:00 +19°C° 0 mm 1 mps 685 mmHg 71%
    08:00 +21°C° 0 mm 1 mps 685 mmHg 62%
    09:00 +23°C° 0 mm 1 mps 685 mmHg 52%
    10:00 +26°C° 0 mm 1 mps 685 mmHg 43%
    11:00 +26°C° 0.1 mm 1 mps 685 mmHg 42%
    12:00 +26°C° 0.1 mm 1 mps 684 mmHg 42%
    13:00 +26°C° 0.1 mm 2 mps 684 mmHg 41%
    14:00 +25°C° 0.6 mm 2 mps 684 mmHg 47%
    15:00 +24°C° 0.6 mm 1 mps 683 mmHg 53%
    16:00 +24°C° 0.6 mm 1 mps 683 mmHg 59%
    17:00 +23°C° 0.8 mm 1 mps 683 mmHg 67%
    18:00 +22°C° 0.8 mm 1 mps 683 mmHg 75%
    19:00 +19°C° 0.8 mm 0 mps 683 mmHg 82%
    20:00 +19°C° 0.6 mm 1 mps 683 mmHg 85%
    21:00 +18°C° 0.6 mm 1 mps 683 mmHg 88%
    22:00 +16°C° 0.6 mm 1 mps 683 mmHg 91%
    23:00 +15°C° 0 mm 1 mps 683 mmHg 92%

    Tomorrow, 17 July, Tuesday

    Time Temperature Precipitation Wind Pressure Humidity
    00:00 +15°C° 0 mm 2 mps 683 mmHg 92%
    01:00 +14°C° 0 mm 2 mps 682 mmHg 93%
    02:00 +14°C° 0.1 mm 2 mps 683 mmHg 93%
    03:00 +14°C° 0.1 mm 2 mps 683 mmHg 93%
    04:00 +14°C° 0.1 mm 2 mps 683 mmHg 93%
    05:00 +15°C° 0.2 mm 2 mps 683 mmHg 91%
    06:00 +16°C° 0.2 mm 2 mps 683 mmHg 88%
    07:00 +17°C° 0.2 mm 2 mps 684 mmHg 86%
    08:00 +18°C° 0.4 mm 2 mps 684 mmHg 81%
    09:00 +19°C° 0.4 mm 2 mps 684 mmHg 77%
    10:00 +20°C° 0.4 mm 2 mps 684 mmHg 72%
    11:00 +21°C° 0.5 mm 2 mps 685 mmHg 69%
    12:00 +23°C° 0.5 mm 2 mps 685 mmHg 65%
    13:00 +24°C° 0.5 mm 2 mps 685 mmHg 62%
    14:00 +22°C° 0.6 mm 3 mps 685 mmHg 64%
    15:00 +22°C° 0.6 mm 3 mps 685 mmHg 66%
    16:00 +22°C° 0.6 mm 3 mps 685 mmHg 67%
    17:00 +21°C° 0.6 mm 2 mps 685 mmHg 73%
    18:00 +20°C° 0.6 mm 2 mps 685 mmHg 79%
    19:00 +19°C° 0.6 mm 2 mps 685 mmHg 85%
    20:00 +17°C° 0.1 mm 2 mps 685 mmHg 88%
    21:00 +16°C° 0.1 mm 2 mps 685 mmHg 91%
    22:00 +14°C° 0.1 mm 2 mps 685 mmHg 94%
    23:00 +14°C° 0 mm 2 mps 685 mmHg 94%

    Day after tomorrow, 18 July, Wednesday

    Time Temperature Precipitation Wind Pressure Humidity
    00:00 +13°C° 0 mm 2 mps 685 mmHg 93%
    01:00 +13°C° 0 mm 2 mps 685 mmHg 93%
    02:00 +12°C° 0 mm 2 mps 685 mmHg 92%
    03:00 +12°C° 0 mm 2 mps 685 mmHg 91%
    04:00 +12°C° 0 mm 2 mps 685 mmHg 90%
    05:00 +13°C° 0 mm 2 mps 685 mmHg 85%
    06:00 +15°C° 0 mm 2 mps 685 mmHg 81%
    07:00 +17°C° 0 mm 2 mps 686 mmHg 77%
    08:00 +19°C° 0 mm 2 mps 686 mmHg 68%
    09:00 +21°C° 0 mm 2 mps 686 mmHg 59%
    10:00 +24°C° 0 mm 2 mps 687 mmHg 50%
    11:00 +25°C° 0 mm 2 mps 686 mmHg 48%
    12:00 +25°C° 0 mm 2 mps 686 mmHg 46%
    13:00 +26°C° 0 mm 2 mps 686 mmHg 44%
    14:00 +26°C° 0.1 mm 2 mps 686 mmHg 47%
    15:00 +26°C° 0.1 mm 2 mps 686 mmHg 50%
    16:00 +25°C° 0.1 mm 3 mps 686 mmHg 53%
    17:00 +24°C° 0.1 mm 2 mps 686 mmHg 62%
    18:00 +23°C° 0.1 mm 2 mps 685 mmHg 71%
    19:00 +21°C° 0.1 mm 2 mps 685 mmHg 80%
    20:00 +19°C° 0 mm 2 mps 685 mmHg 85%
    21:00 +19°C° 0 mm 1 mps 686 mmHg 89%
    22:00 +16°C° 0 mm 1 mps 686 mmHg 94%
    23:00 +15°C° 0 mm 1 mps 686 mmHg 95%

    19 July, Thursday

    Time Temperature Precipitation Wind Pressure Humidity
    00:00 +15°C° 0 mm 1 mps 686 mmHg 95%
    01:00 +14°C° 0 mm 1 mps 686 mmHg 95%
    02:00 +14°C° 0 mm 1 mps 685 mmHg 95%
    03:00 +13°C° 0 mm 1 mps 685 mmHg 95%
    04:00 +13°C° 0 mm 1 mps 685 mmHg 94%
    05:00 +15°C° 0 mm 1 mps 685 mmHg 88%
    06:00 +16°C° 0 mm 1 mps 686 mmHg 81%
    07:00 +19°C° 0 mm 1 mps 686 mmHg 74%
    08:00 +21°C° 0 mm 1 mps 686 mmHg 64%
    09:00 +23°C° 0 mm 1 mps 687 mmHg 54%
    10:00 +25°C° 0 mm 1 mps 687 mmHg 44%
    11:00 +26°C° 0 mm 1 mps 687 mmHg 41%
    12:00 +27°C° 0 mm 2 mps 687 mmHg 39%
    13:00 +28°C° 0 mm 2 mps 687 mmHg 37%
    14:00 +28°C° 0 mm 2 mps 686 mmHg 39%
    15:00 +28°C° 0 mm 2 mps 686 mmHg 41%
    16:00 +27°C° 0 mm 2 mps 686 mmHg 43%
    17:00 +26°C° 0.1 mm 2 mps 686 mmHg 53%
    18:00 +25°C° 0.1 mm 2 mps 686 mmHg 63%
    19:00 +23°C° 0.1 mm 1 mps 685 mmHg 74%
    20:00 +21°C° 0.1 mm 1 mps 685 mmHg 80%
    21:00 +19°C° 0.1 mm 1 mps 685 mmHg 86%
    22:00 +16°C° 0.1 mm 1 mps 685 mmHg 92%
    23:00 +16°C° 0 mm 1 mps 685 mmHg 91%

    20 July, Friday

    Time Temperature Precipitation Wind Pressure Humidity
    00:00 +16°C° 0 mm 1 mps 685 mmHg 90%
    01:00 +16°C° 0 mm 1 mps 684 mmHg 90%
    02:00 +16°C° 0 mm 1 mps 684 mmHg 89%
    03:00 +16°C° 0 mm 1 mps 684 mmHg 88%
    04:00 +16°C° 0 mm 1 mps 684 mmHg 86%
    05:00 +18°C° 0 mm 1 mps 684 mmHg 82%
    06:00 +20°C° 0 mm 1 mps 684 mmHg 77%
    07:00 +21°C° 0 mm 1 mps 684 mmHg 73%
    08:00 +23°C° 0.1 mm 1 mps 685 mmHg 66%
    09:00 +24°C° 0.1 mm 1 mps 685 mmHg 60%
    10:00 +26°C° 0.1 mm 1 mps 685 mmHg 53%
    11:00 +26°C° 0.5 mm 1 mps 684 mmHg 56%
    12:00 +26°C° 0.5 mm 1 mps 684 mmHg 58%
    13:00 +26°C° 0.5 mm 1 mps 684 mmHg 61%
    14:00 +25°C° 1.5 mm 1 mps 684 mmHg 65%
    15:00 +25°C° 1.5 mm 1 mps 684 mmHg 69%
    16:00 +24°C° 1.5 mm 1 mps 684 mmHg 73%
    17:00 +23°C° 1.6 mm 1 mps 684 mmHg 79%
    18:00 +22°C° 1.6 mm 1 mps 683 mmHg 85%
    19:00 +21°C° 1.6 mm 1 mps 683 mmHg 91%
    20:00 +20°C° 2 mm 1 mps 683 mmHg 93%
    21:00 +19°C° 2 mm 1 mps 683 mmHg 94%
    22:00 +18°C° 2 mm 1 mps 683 mmHg 96%
    23:00 +18°C° 0.6 mm 1 mps 683 mmHg 95%

    21 July, Saturday

    Time Temperature Precipitation Wind Pressure Humidity
    00:00 +18°C° 0.6 mm 1 mps 683 mmHg 95%
    01:00 +18°C° 0.6 mm 1 mps 683 mmHg 94%
    02:00 +16°C° 0.2 mm 1 mps 683 mmHg 94%
    03:00 +16°C° 0.2 mm 1 mps 683 mmHg 93%
    04:00 +16°C° 0.2 mm 1 mps 682 mmHg 92%
    05:00 +18°C° 0.3 mm 1 mps 683 mmHg 90%
    06:00 +18°C° 0.3 mm 1 mps 683 mmHg 88%
    07:00 +19°C° 0.3 mm 1 mps 683 mmHg 86%
    08:00 +21°C° 0.3 mm 1 mps 684 mmHg 78%
    09:00 +22°C° 0.3 mm 1 mps 684 mmHg 71%
    10:00 +23°C° 0.3 mm 1 mps 684 mmHg 63%
    11:00 +24°C° 0.3 mm 1 mps 684 mmHg 61%
    12:00 +24°C° 0.3 mm 1 mps 684 mmHg 59%
    13:00 +25°C° 0.3 mm 1 mps 684 mmHg 58%
    14:00 +25°C° 0.9 mm 1 mps 684 mmHg 60%
    15:00 +25°C° 0.9 mm 1 mps 684 mmHg 63%
    16:00 +24°C° 0.9 mm 1 mps 684 mmHg 65%
    17:00 +23°C° 1.6 mm 1 mps 684 mmHg 73%
    18:00 +22°C° 1.6 mm 1 mps 684 mmHg 81%
    19:00 +19°C° 1.6 mm 0 mps 684 mmHg 88%
    20:00 +18°C° 1.8 mm 0 mps 684 mmHg 90%
    21:00 +19°C° 1.8 mm 1 mps 684 mmHg 93%
    22:00 +18°C° 1.8 mm 1 mps 684 mmHg 95%
    23:00 +18°C° 0.7 mm 1 mps 684 mmHg 95%
    Show more